Weather History for Myrtle Beach, SC

Change the Weather History Date:

Sunday, December 8, 2013

  Actual Average Record
Temperature  
Mean Temperature 42 °F -  
Max Temperature 44 °F 58 °F 81 °F (1998)
Min Temperature 41 °F 39 °F 15 °F (1954)
Degree Days  
Heating Degree Days 22    
Moisture  
Dew Point 41 °F    
Average Humidity 91    
Maximum Humidity 93    
Minimum Humidity 81    
Precipitation  
Precipitation 0.01 in - - ()
Sea Level Pressure  
Sea Level Pressure 30.33 in    
Wind  
Wind Speed 11 mph (NNE)    
Max Wind Speed 16 mph    
Max Gust Speed 18 mph    
Visibility 8 miles    
Events      
Averages and records for this station are not official NWS values.
T = Trace of Precipitation, MM = Missing Value Source: NWS Daily Summary

Daily Weather History Graph

Daily Weather History Graph

Search for Another Location

Airport:

Trip Planner

Search our weather history database for the weather conditions in past years. The results will help you decide how hot, cold, wet, or windy it might be!

Date:

Astronomy

Dec. 08, 2013 Rise Set
Actual Time 7:08 AM EST 5:07 PM EST
Civil Twilight 6:40 AM EST 5:34 PM EST
Nautical Twilight 6:09 AM EST 6:05 PM EST
Astronomical Twilight 5:39 AM EST 6:36 PM EST
Moon 11:40 AM EST (12/8) 11:40 PM EST (12/8)
Length of Visible Light 10h 54m
Length of Day
9h 59m
Waxing Crescent, 40% of the Moon is Illuminated
Dec 8
Waxing Crescent
Dec 9
First Quarter
Dec 17
Full
Dec 25
Last Quarter
Jan 1
New

Hourly Weather History & Observations

Time (EST) Temp. Windchill Dew Point Humidity Pressure Visibility Wind Dir Wind Speed Gust Speed Precip Events Conditions
12:15 AM 44.6 °F 38.4 °F 42.8 °F 93% 30.38 in 10.0 mi NNE 12.7 mph - N/A   Overcast
12:35 AM 44.6 °F 38.4 °F 42.8 °F 93% 30.37 in 10.0 mi NNE 12.7 mph 17.3 mph N/A   Overcast
12:55 AM 44.6 °F 38.8 °F 42.8 °F 93% 30.37 in 10.0 mi NNE 11.5 mph 18.4 mph N/A   Overcast
1:15 AM 44.6 °F 39.2 °F 42.8 °F 93% 30.36 in 10.0 mi NNE 10.4 mph - N/A   Overcast
1:35 AM 44.6 °F 39.7 °F 42.8 °F 93% 30.37 in 10.0 mi NNE 9.2 mph - N/A   Overcast
1:55 AM 44.6 °F 38.4 °F 41.0 °F 87% 30.36 in 10.0 mi NNE 12.7 mph - N/A   Overcast
2:15 AM 44.6 °F 38.8 °F 41.0 °F 87% 30.36 in 10.0 mi NNE 11.5 mph - N/A   Overcast
2:35 AM 44.6 °F 39.7 °F 41.0 °F 87% 30.36 in 10.0 mi NNE 9.2 mph - N/A   Overcast
2:55 AM 44.6 °F 39.2 °F 41.0 °F 87% 30.34 in 8.0 mi NE 10.4 mph - N/A   Overcast
3:15 AM 44.6 °F 39.2 °F 42.8 °F 93% 30.35 in 7.0 mi NNE 10.4 mph 17.3 mph N/A   Overcast
3:35 AM 42.8 °F 37.0 °F 41.0 °F 93% 30.34 in 10.0 mi NE 10.4 mph 16.1 mph N/A   Overcast
3:55 AM 42.8 °F 37.5 °F 41.0 °F 93% 30.34 in 8.0 mi NNE 9.2 mph - N/A   Overcast
4:15 AM 42.8 °F 35.8 °F 41.0 °F 93% 30.34 in 10.0 mi NNE 13.8 mph - N/A   Overcast
4:35 AM 42.8 °F 37.5 °F 41.0 °F 93% 30.34 in 10.0 mi NNE 9.2 mph - N/A   Overcast
4:55 AM 42.8 °F 38.0 °F 41.0 °F 93% 30.34 in 8.0 mi NNE 8.1 mph - N/A   Overcast
5:15 AM 42.8 °F 38.0 °F 41.0 °F 93% 30.35 in 4.0 mi NNE 8.1 mph - N/A   Overcast
5:35 AM 42.8 °F 37.5 °F 41.0 °F 93% 30.35 in 5.0 mi NNE 9.2 mph - 0.01 in   Overcast
5:50 AM 42.8 °F 35.8 °F 41.0 °F 93% 30.35 in 5.0 mi NNE 13.8 mph - N/A   Overcast
6:45 AM 42.8 °F 36.6 °F 41.0 °F 93% 30.36 in 4.0 mi NNE 11.5 mph - N/A   Overcast
7:45 AM 42.8 °F 36.6 °F 41.0 °F 93% 30.35 in 10.0 mi NE 11.5 mph - N/A   Overcast
8:45 AM 42.8 °F 35.4 °F 41.0 °F 93% 30.37 in 8.0 mi NNE 15.0 mph - N/A   Overcast
9:45 AM 42.8 °F 36.6 °F 41.0 °F 93% 30.37 in 3.0 mi NNE 11.5 mph - N/A   Overcast
10:50 AM 42.8 °F 35.1 °F 41.0 °F 93% 30.37 in 3.0 mi NNE 16.1 mph - N/A   Overcast
11:45 AM 42.8 °F 35.8 °F 41.0 °F 93% 30.34 in 3.0 mi NNE 13.8 mph - N/A   Overcast
12:47 PM 42.8 °F 36.6 °F 41.0 °F 93% 30.30 in 3.0 mi NE 11.5 mph - N/A   Overcast
1:45 PM 44.6 °F 40.2 °F 41.0 °F 87% 30.28 in 6.0 mi North 8.1 mph - N/A   Overcast
2:45 PM 42.8 °F 35.4 °F 39.2 °F 87% 30.29 in 4.0 mi North 15.0 mph - N/A   Overcast
3:50 PM 42.8 °F 35.4 °F 39.2 °F 87% 30.30 in 4.0 mi North 15.0 mph - N/A   Overcast
4:45 PM 42.8 °F 35.8 °F 41.0 °F 93% 30.29 in 10.0 mi NNE 13.8 mph - N/A   Overcast
5:45 PM 42.8 °F 35.8 °F 39.2 °F 87% 30.30 in 10.0 mi ESE 13.8 mph - N/A   Overcast
6:45 PM 42.8 °F 36.6 °F 37.4 °F 81% 30.31 in 10.0 mi North 11.5 mph - N/A   Overcast
7:45 PM 42.8 °F 38.0 °F 37.4 °F 81% 30.32 in 3.0 mi North 8.1 mph - N/A   Overcast
8:45 PM 41.0 °F 37.1 °F 37.4 °F 87% 30.32 in 7.0 mi North 5.8 mph - N/A   Overcast
9:45 PM 41.0 °F 37.1 °F 39.2 °F 93% 30.31 in 7.0 mi North 5.8 mph - N/A   Overcast
10:55 PM 42.8 °F 38.6 °F 39.2 °F 87% 30.30 in 10.0 mi North 6.9 mph - N/A   Overcast
11:15 PM 42.8 °F 39.3 °F 41.0 °F 93% 30.29 in 10.0 mi North 5.8 mph - N/A   Overcast
11:35 PM 42.8 °F 38.0 °F 41.0 °F 93% 30.28 in 7.0 mi NNE 8.1 mph - N/A   Overcast
11:55 PM 42.8 °F 38.6 °F 41.0 °F 93% 30.27 in 10.0 mi North 6.9 mph - N/A   Overcast